Regional Weather Roundup
Issued by NWS

Home | Current Version | Previous Version | Text Only | Print | Product List | Glossary On
Versions: 1 2 3 4 5 6 7 8 9 10 11 12 13 14 15 16 17 18 19 20 21 22 23 24 25 26 27 28 29 30 31 32 33 34 35 36 37 38 39 40 41 42 43 44 45 46 47 48 49 50
000
ASUS43 KDTX 202010
RWRMI
MICHIGAN HOURLY REGIONAL WEATHER ROUNDUP
NATIONAL WEATHER SERVICE DETROIT/PONTIAC MI
400 PM EDT WED AUG 20 2014

NOTE: "FAIR" INDICATES FEW OR NO CLOUDS BELOW 12,000 FEET WITH NO
SIGNIFICANT WEATHER AND/OR OBSTRUCTION TO VISIBILITY.

MIZ047>049-052>055-059>063-066>070-074>076-081>083-202100-
SOUTHEAST LOWER MICHIGAN

CITY           SKY/WX    TMP DP  RH WIND       PRES   REMARKS
ADRIAN         CLOUDY    82  65  56 W12G20    29.91S
ALMA           CLOUDY    77  61  58 W12G21    29.87S
ANN ARBOR      MOSUNNY   79  65  62 W8        29.89F
BAD AXE        CLOUDY    77  66  69 NW13G21   29.86F
DETROIT CITY   MOSUNNY   84  63  49 W15       29.86F
DETROIT        PTSUNNY   81  64  56 W12       29.88F
FLINT          CLOUDY    81  65  58 W9        29.87F
GROSSE ILE     PTSUNNY   81  70  69 CALM      29.87F
HILLSDALE      PTSUNNY   80  66  61 W7        29.93S
HOWELL         CLOUDY    77  64  63 SW10      29.89S

CITY           SKY/WX    TMP DP  RH WIND       PRES   REMARKS
JACKSON        PTSUNNY   79  66  64 W8        29.91S
LAMBERTVILLE   CLOUDY    79  68  69 W5        29.90F
LANSING        MOSUNNY   80  63  55 W15       29.89S
LAPEER         NOT AVBL
MASON          PTSUNNY   78  63  60 W12G18    29.90S
MONROE         MOSUNNY   82  66  57 SW9       29.87F
MT. CLEMENS    PTSUNNY   83  62  49 SW14      29.84F
PONTIAC        PTSUNNY   79  63  57 W12       29.88S
PORT HOPE        N/A     72  67  84 E6        29.84F
PORT HURON     PTSUNNY   79  70  73 W7        29.86F
TRI CITIES     MOSUNNY   80  68  66 W8        29.86S
YPSILANTI      LGT RAIN  87  64  46 W12       29.88F
$$
MIZ043>046-050>051-056>058-064>065-071>073-077>080-202100-
SOUTHWEST LOWER MICHIGAN

CITY           SKY/WX    TMP DP  RH WIND       PRES   REMARKS
BATTLE CREEK   PTSUNNY   82  64  54 W13       29.92F
BENTON HARBOR  SUNNY     81  63  54 W8        29.91F
BIG RAPIDS     PTSUNNY   75  64  67 W12       29.88F
COLDWATER      CLOUDY    83  65  53 W13G20    29.91F
HOLLAND        SUNNY     79  66  64 W8        29.92F
GRAND RAPIDS   PTSUNNY   80  67  64 W18       29.91S
KALAMAZOO      MOSUNNY   83  62  49 NW15G22   29.91F
MARSHALL       PTSUNNY   79  64  59 MISG      29.91S
MUSKEGON       MOSUNNY   75  63  66 W7        29.91F
$$
MIZ016>042-202100-
NORTHERN LOWER MICHIGAN

CITY           SKY/WX    TMP DP  RH WIND       PRES   REMARKS
ALPENA         CLOUDY    78  64  61 NW7       29.84S
BEAVER ISLAND  CLOUDY    64  62  94 W7        29.89R FOG
BELLAIRE       CLOUDY    69  61  77 W3        29.88S
CADILLAC       CLOUDY    71  63  76 W8        29.90R
CHARLEVOIX     CLOUDY    66  64  91 W12       29.91S
FRANKFORT      CLOUDY    68  61  77 W7        29.90S
GAYLORD        CLOUDY    68  60  75 W8        29.89R
GRAYLING       CLOUDY    74  62  66 W9        29.88S
HARBOR SPRINGS CLOUDY    65  61  86 W8        29.87F
HOUGHTON LAKE  PTSUNNY   75  62  64 W8        29.87F
MANISTEE       CLOUDY    70  59  68 W9        29.91S
OSCODA         LGT RAIN  70  68  94 CALM      29.84F
PELLSTON       CLOUDY    66  63  90 SW6       29.88R
TRAVERSE CITY  CLOUDY    71  60  68 W10       29.87R
$$
MIZ007>008-015-202100-
EASTERN UPPER MICHIGAN

CITY           SKY/WX    TMP DP  RH WIND       PRES   REMARKS
KINROSS        CLOUDY    66  66 100 CALM      29.86S
MACKINAC ISLAN LGT RAIN  64  64 100 CALM      29.86S
NEWBERRY       CLOUDY    64  62  92 W8        29.87S
S. S. MARIE    LGT RAIN  68  65  90 VRB3      29.86R
$$
MIZ004>006-011>014-085-202100-
CENTRAL UPPER MICHIGAN

CITY           SKY/WX    TMP DP  RH WIND       PRES   REMARKS
MANISTIQUE     DRIZZLE   64  62  95 NW5       29.88S
ESCANABA       CLOUDY    66  61  82 CALM      29.88F
MENOMINEE      CLOUDY    72  63  73 S3        29.87S
SAWYER-GWINN   CLOUDY    64  59  82 NW5       29.89S
$$
MIZ001>003-009>011-084-202100-
WESTERN UPPER MICHIGAN

CITY           SKY/WX    TMP DP  RH WIND       PRES   REMARKS
IRON MOUNTAIN  CLOUDY    68  59  73 N3        29.89F
HOUGHTON       CLOUDY    64  58  80 N8        29.90R
COPPER HARBOR    N/A     53  52  96 N7        29.90R
IRONWOOD       CLOUDY    66  63  88 E5        29.88F
$$

ABBREVIATIONS USED IN REMARKS
   TC - TEMPERATURE IN CELSIUS
  WCI - WIND CHILL INDEX
   HX - HEAT INDEX
  VSB - VISIBILITY




USA.gov is the U.S. government's official web portal to all federal, state and local government web resources and services.